Boise Air Terminal,Gowen field Boise US
ICAO: KBOI
IATA: BOI
Category: Large
Scheduled Services: Yes

Elevation: 2871 ft
TransAlt. 18000 ft.

Airport Communications:
APP/DEP:119.6
ATIS:123.9
CLNC DEL:125.9
SALT LAKE CITY CNTR:128.05
GND:121.7
ANG OPS:29.87
ARNG OPS:41.5
RDO:122.2
TWR:118.1
UNICOM:122.95

KBOI Zoom In..

If you have problems with the map follow the link
https://www.worldairports.se/pages/airport.php?
ICAO=KBOI

Runways:

(A) RW 10L length 10000 ft width 150 ft
---- / hdg 100

(B) RW 10R length 9763 ft width 150 ft
ILS 111.10 / hdg 100

(C) RW 28L length 9763 ft width 150 ft
---- / hdg 280

(D) RW 28R length 10000 ft width 150 ft
ILS 110.15 / hdg 280

Location; KBOI
Day. 16 / Time. 02.53 Zulu
* Altimeter: 30.22
* Temperature: 03° c. 37.4°f.
* Wind from: 000° Speed 00 kn.
Dewpoint: -07° c.
Visibility: 10 Statute Miles.
Clouds: Clear (automated report).

KBOI 160253Z 00000KT 10SM CLR 03/M07 A3022 RMK AO2 SLP253 T00281072 58005


Wind - Calm.

 
 
jpsmedia.com for Web Design worldairports.se 2018   terms of use